Location: Unspecified
(0.0000°N, 0.0000°E)
Time: 02:26:21
(UTC+00:00)

Hubble Space Telescope - Pass Details

Date: 24 September 2022
Orbit: 531 x 535 km, 28.5° (Epoch: 25 September)

Event Time Altitude Azimuth Distance (km) Brightness Sun altitude
Exits shadow 05:04:02 13° 236° (SW) 1,613 2.7 -12.0°
Maximum altitude 05:05:44 16° 208° (SSW) 1,457 2.7 -11.6°
Drops below altitude 10° 05:08:14 10° 170° (S) 1,777 3.5 -11.0°
Sets 05:11:15 0° 147° (SSE) 2,668 4.8 -10.2°
